User: anonymous   Login
Location: Dompnac
(44.5644°N, 4.1026°E)
Time: 03:07:46
(UTC+00:00)
Language:

Terra - Orbit

View from above orbital plane
View from above orbital plane
View from above satellite
View from above satellite

Ground track
Ground track

The orbit data is extracted from the following two-line orbital elements,

1 25994U 99068A   20338.59821825  .00000122  00000-0  37079-4 0  9992
2 25994  98.1985  50.3955 0001126  93.7237  12.4325 14.57121039114948
Epoch (UTC): 03 December 2020 14:21:26
Eccentricity: 0.0001126
inclination: 98.1985°
perigee height: 701 km
apogee height: 703 km
right ascension of ascending node: 50.3955°
argument of perigee: 93.7237°
revolutions per day: 14.57121039
mean anomaly at epoch: 12.4325°
orbit number at epoch: 11494

The dashed part of the orbit path shows where the satellite is in the earth's shadow,  

DLR